RA43 URMM-URSS

Flight info

Callsign RA43
Flight time 0h 55m
Altitude 26000
Route ABELA5L ABELA B967 ERSAR G487 BINOL BINOL1K
Aircraft PC12/L-SDFGRWY/S

Departure

Time 2026-05-04 16:49
Airport Mineralnye Vody Airport (URMM)

Arrival

Time 2026-05-04 17:45
Airport Sochi International Airport (URSS)
Time Latitude Longitude Altitude Speed Heading
2026-05-04 16:08 44.22168 43.08092 1043 ft 0 kts 212°
2026-05-04 16:34 44.22190 43.08111 1043 ft 2 kts 210°
2026-05-04 16:34 44.22204 43.08122 1043 ft 2 kts 208°
2026-05-04 16:35 44.22227 43.08130 1043 ft 0 kts 131°
2026-05-04 16:35 44.22228 43.08128 1043 ft 0 kts 116°
2026-05-04 16:37 44.22197 43.08194 1043 ft 11 kts 120°
2026-05-04 16:37 44.22148 43.08302 1043 ft 14 kts 120°
2026-05-04 16:37 44.22044 43.08528 1043 ft 14 kts 125°
2026-05-04 16:38 44.21942 43.08756 1043 ft 14 kts 125°
2026-05-04 16:39 44.21870 43.09067 1044 ft 12 kts 33°
2026-05-04 16:39 44.22009 43.09102 1043 ft 10 kts 329°
2026-05-04 16:40 44.22147 43.08996 1041 ft 12 kts 327°
2026-05-04 16:40 44.22211 43.08952 1041 ft 0 kts 336°
2026-05-04 16:45 44.22281 43.08902 1042 ft 15 kts 332°
2026-05-04 16:46 44.22614 43.08448 1042 ft 25 kts 305°
2026-05-04 16:46 44.22825 43.08003 1040 ft 30 kts 303°
2026-05-04 16:47 44.23048 43.07496 1043 ft 31 kts 303°
2026-05-04 16:47 44.23262 43.07047 1039 ft 19 kts 313°
2026-05-04 16:48 44.23278 43.06990 1040 ft 0 kts 123°
2026-05-04 16:48 44.23232 43.07091 1039 ft 41 kts 120°
2026-05-04 16:49 44.22477 43.08706 1290 ft 136 kts 124°
2026-05-04 16:49 44.21251 43.11298 1919 ft 172 kts 119°
2026-05-04 16:50 44.20017 43.14116 3025 ft 171 kts 122°
2026-05-04 16:50 44.18745 43.16941 4199 ft 173 kts 122°
2026-05-04 16:51 44.17452 43.19780 5402 ft 173 kts 122°
2026-05-04 16:51 44.16803 43.21203 5967 ft 174 kts 122°
2026-05-04 16:51 44.15751 43.24214 7010 ft 179 kts 94°
2026-05-04 16:52 44.16905 43.27211 8030 ft 194 kts 34°
2026-05-04 16:52 44.18226 43.27628 8570 ft 202 kts 359°
2026-05-04 16:53 44.20721 43.25766 9715 ft 207 kts 328°
2026-05-04 16:53 44.24310 43.22265 11169 ft 213 kts 328°
2026-05-04 16:54 44.25535 43.21078 11647 ft 216 kts 327°
2026-05-04 16:55 44.29992 43.15427 13553 ft 224 kts 290°
2026-05-04 16:55 44.30047 43.11178 14458 ft 222 kts 251°
2026-05-04 16:56 44.29168 43.07041 15393 ft 223 kts 251°
2026-05-04 16:56 44.27840 43.00754 16733 ft 227 kts 251°
2026-05-04 16:57 44.27392 42.98635 17176 ft 229 kts 250°
2026-05-04 16:57 44.26264 42.94517 18061 ft 231 kts 248°
2026-05-04 16:58 44.24988 42.87951 19240 ft 235 kts 250°
2026-05-04 16:58 44.24523 42.85759 19634 ft 236 kts 251°
2026-05-04 16:59 44.23606 42.81337 20414 ft 239 kts 251°
2026-05-04 17:00 44.21728 42.72270 21884 ft 246 kts 251°
2026-05-04 17:00 44.20277 42.65340 23017 ft 250 kts 252°
2026-05-04 17:01 44.19298 42.60657 23721 ft 253 kts 253°
2026-05-04 17:01 44.18912 42.55724 24317 ft 259 kts 263°
2026-05-04 17:02 44.18592 42.50709 24938 ft 261 kts 263°
2026-05-04 17:02 44.18284 42.45642 25547 ft 264 kts 263°
2026-05-04 17:03 44.18125 42.43092 25850 ft 265 kts 263°
2026-05-04 17:03 44.17966 42.40521 26145 ft 267 kts 263°
2026-05-04 17:03 44.17642 42.35328 26680 ft 273 kts 263°
2026-05-04 17:04 44.17307 42.30001 27236 ft 278 kts 263°
2026-05-04 17:04 44.16966 42.24613 27835 ft 280 kts 263°
2026-05-04 17:05 44.16619 42.19175 28505 ft 283 kts 262°
2026-05-04 17:05 44.16266 42.13675 29151 ft 286 kts 262°
2026-05-04 17:06 44.15909 42.08162 29769 ft 289 kts 262°
2026-05-04 17:06 44.15726 42.05350 29939 ft 295 kts 262°
2026-05-04 17:07 44.15344 41.99486 29946 ft 312 kts 262°
2026-05-04 17:07 44.15277 41.98463 29949 ft 314 kts 262°
2026-05-04 17:07 44.14734 41.90232 29953 ft 326 kts 262°
2026-05-04 17:08 44.14164 41.81717 29959 ft 333 kts 262°
2026-05-04 17:09 44.13726 41.75247 29951 ft 338 kts 261°
2026-05-04 17:09 44.13280 41.68714 29944 ft 340 kts 262°
2026-05-04 17:10 44.12150 41.52395 29940 ft 340 kts 261°
2026-05-04 17:11 44.11252 41.46008 29934 ft 333 kts 246°
2026-05-04 17:12 44.08543 41.37077 29945 ft 337 kts 243°
2026-05-04 17:13 44.03959 41.22066 29930 ft 337 kts 243°
2026-05-04 17:14 44.00314 41.10034 29944 ft 342 kts 249°
2026-05-04 17:14 43.99932 41.03371 29948 ft 355 kts 278°
2026-05-04 17:15 44.00607 41.00056 29934 ft 358 kts 294°
2026-05-04 17:15 44.03501 40.94523 29945 ft 355 kts 324°
2026-05-04 17:16 44.07941 40.92538 29948 ft 331 kts 13°
2026-05-04 17:16 44.12663 40.98121 29947 ft 302 kts 70°
2026-05-04 17:17 44.13521 41.00781 29936 ft 301 kts 72°
2026-05-04 17:17 44.14014 41.08906 29948 ft 289 kts 120°
2026-05-04 17:18 44.12846 41.11176 29951 ft 290 kts 132°
2026-05-04 17:18 44.09368 41.14017 29948 ft 299 kts 162°
2026-05-04 17:19 44.05174 41.13597 29954 ft 317 kts 197°
2026-05-04 17:19 44.01847 41.09494 29942 ft 336 kts 236°
2026-05-04 17:20 43.99770 41.03580 29933 ft 345 kts 240°
2026-05-04 17:20 43.96570 40.94585 29927 ft 347 kts 239°
2026-05-04 17:21 43.92296 40.82582 29907 ft 347 kts 239°
2026-05-04 17:22 43.90158 40.76601 29506 ft 351 kts 239°
2026-05-04 17:23 43.87023 40.67416 28117 ft 353 kts 243°
2026-05-04 17:23 43.86033 40.64305 27639 ft 353 kts 243°
2026-05-04 17:23 43.84042 40.58084 26706 ft 354 kts 243°
2026-05-04 17:24 43.83052 40.54972 26233 ft 354 kts 243°
2026-05-04 17:24 43.80057 40.45606 24856 ft 355 kts 243°
2026-05-04 17:25 43.79051 40.42463 24353 ft 359 kts 242°
2026-05-04 17:25 43.77057 40.36244 22998 ft 346 kts 242°
2026-05-04 17:26 43.75129 40.30284 21538 ft 332 kts 242°
2026-05-04 17:26 43.72334 40.21611 19786 ft 333 kts 241°
2026-05-04 17:27 43.70460 40.15781 18677 ft 329 kts 239°
2026-05-04 17:27 43.67790 40.10917 17477 ft 311 kts 217°
2026-05-04 17:28 43.64210 40.07901 16237 ft 296 kts 200°
2026-05-04 17:29 43.58678 40.04437 14518 ft 286 kts 202°
2026-05-04 17:29 43.53312 40.01083 12775 ft 279 kts 203°
2026-05-04 17:30 43.48039 39.97790 11003 ft 276 kts 204°
2026-05-04 17:31 43.45162 39.95096 9480 ft 234 kts 226°
2026-05-04 17:31 43.42509 39.89701 7104 ft 223 kts 237°
2026-05-04 17:32 43.40874 39.86132 5860 ft 210 kts 238°
2026-05-04 17:33 43.38189 39.81236 5848 ft 217 kts 227°
2026-05-04 17:33 43.37376 39.79514 5803 ft 221 kts 246°
2026-05-04 17:34 43.36259 39.73501 5986 ft 215 kts 258°
2026-05-04 17:34 43.35927 39.71438 5651 ft 229 kts 258°
2026-05-04 17:35 43.34845 39.64741 4384 ft 244 kts 258°
2026-05-04 17:35 43.34101 39.60277 4001 ft 230 kts 258°
2026-05-04 17:35 43.33730 39.58164 3994 ft 224 kts 258°
2026-05-04 17:36 43.33369 39.56094 3990 ft 221 kts 258°
2026-05-04 17:36 43.32809 39.54154 3986 ft 221 kts 235°
2026-05-04 17:36 43.31593 39.52847 3771 ft 230 kts 204°
2026-05-04 17:36 43.30032 39.52566 3437 ft 227 kts 172°
2026-05-04 17:37 43.28614 39.53423 3110 ft 224 kts 140°
2026-05-04 17:37 43.27749 39.55143 2777 ft 220 kts 109°
2026-05-04 17:37 43.27666 39.57204 2448 ft 218 kts 81°
2026-05-04 17:37 43.27971 39.59231 2148 ft 216 kts 80°
2026-05-04 17:38 43.28060 39.61263 2016 ft 209 kts 92°
2026-05-04 17:38 43.27955 39.63209 2013 ft 201 kts 95°
2026-05-04 17:38 43.27844 39.65106 2007 ft 198 kts 94°
2026-05-04 17:38 43.27748 39.67098 2014 ft 223 kts 94°
2026-05-04 17:39 43.27508 39.71653 2023 ft 253 kts 94°
2026-05-04 17:39 43.27388 39.74085 2023 ft 256 kts 94°
2026-05-04 17:39 43.27281 39.76494 2024 ft 251 kts 94°
2026-05-04 17:40 43.27278 39.78863 2008 ft 248 kts 82°
2026-05-04 17:40 43.27795 39.81104 2005 ft 246 kts 65°
2026-05-04 17:40 43.28767 39.83016 2024 ft 246 kts 46°
2026-05-04 17:40 43.30078 39.84391 2014 ft 230 kts 35°
2026-05-04 17:41 43.31415 39.85497 2025 ft 219 kts 28°
2026-05-04 17:41 43.32741 39.86472 2030 ft 215 kts 29°
2026-05-04 17:41 43.33986 39.87399 2024 ft 189 kts 30°
2026-05-04 17:41 43.35083 39.88208 1867 ft 156 kts 29°
2026-05-04 17:42 43.35912 39.88809 1693 ft 126 kts 29°
2026-05-04 17:42 43.36694 39.89397 1523 ft 129 kts 29°
2026-05-04 17:42 43.37482 39.89995 1363 ft 129 kts 29°
2026-05-04 17:42 43.38331 39.90624 1190 ft 146 kts 29°
2026-05-04 17:43 43.39140 39.91242 1017 ft 124 kts 28°
2026-05-04 17:43 43.39881 39.91791 863 ft 119 kts 29°
2026-05-04 17:43 43.40598 39.92337 702 ft 116 kts 30°
2026-05-04 17:43 43.41255 39.92854 652 ft 106 kts 30°
2026-05-04 17:44 43.41926 39.93340 502 ft 112 kts 30°
2026-05-04 17:44 43.42642 39.93869 353 ft 119 kts 30°
2026-05-04 17:44 43.43369 39.94411 132 ft 120 kts 30°
2026-05-04 17:44 43.43965 39.94871 70 ft 72 kts 24°
2026-05-04 17:45 43.44187 39.95029 73 ft 33 kts 29°
2026-05-04 17:45 43.44423 39.95212 75 ft 36 kts 26°
2026-05-04 17:45 43.44601 39.95292 75 ft 18 kts
2026-05-04 17:45 43.44674 39.95247 75 ft 11 kts 259°
2026-05-04 17:46 43.44672 39.95238 76 ft 0 kts 245°
2026-05-04 17:46 43.44632 39.95125 67 ft 24 kts 242°
2026-05-04 17:47 43.44554 39.94891 68 ft 29 kts 245°
2026-05-04 17:47 43.44465 39.94632 65 ft 27 kts 248°
2026-05-04 17:47 43.44391 39.94414 62 ft 18 kts 244°
2026-05-04 17:47 43.44323 39.94370 64 ft 11 kts 168°
2026-05-04 17:48 43.44249 39.94367 62 ft 12 kts 154°
2026-05-04 17:48 43.44236 39.94375 64 ft 0 kts 155°